Главная страница
METAR-TAF:

METAR-TAF

Аэропорты :

New Castle, Пенсильвания, США

широта: 41-01-31N, долгота: 080-24-48W, высота над уровнем моря: 326 м

Текущие метеонаблюдения

Эта сводка был подготовлена 57 минут назад, в 08:56 UTC
Ветер 3 Узел переменных направлений
Температура 18°C
Влажность 88%
Давление 1018 hPa
Видимость: 16.1 км
ясное небо

METAR: KUCP 260856Z AUTO VRB03KT 10SM CLR 18/16 A3006 RMK AO2 SLP185 6//// T01780156 51006 PNO $

Время: 05:53 (09:53 UTC)


TAF: отсутствует

Метеонаблюдения и прогнозы для более 4000 аэропортов (сводки METAR и TAF).

Имеющиеся станции представлены на карте желтыми и красными точками.

Чтобы увидеть название станции, наведите на нее мышь.

Затем щелкните, чтобы увидеть метеонаблюдения и метеопрогнозы.

Управление картой: чтобы увеличить масштаб, щелкните зеленые кнопки с черным крестиком; чтобы уменьшить масштаб, щелкните зеленую кнопку с тире; для просмотра соседних карт щелкайте зеленые стрелки.


METAR-TAF: